EW3232 Weather Reports


Display with metric or nautical units.
time (UTC)temp
F
wind
direction
speed
MPH
gust
MPH
rain 1hr
in
rain 24hr
in
rain mn
in
humidity
%
barometer
mb
20260905144616 93 131 6.0 14.0 0.00 0.00 0.00 33 1022.5
20260905143142 93 150 7.0 16.0 0.00 0.00 0.00 33 1022.6
20260905141600 94 129 5.0 16.0 0.00 0.00 0.00 27 1022.6
20260905140109 92 73 5.0 13.0 0.00 0.00 0.00 48 1022.5
20260905134621 93 47 7.0 15.0 0.00 0.00 0.00 46 1022.7
20260905133135 93 67 10.0 17.0 0.00 0.00 0.00 40 1023.0
20260905131538 93 87 9.0 13.0 0.00 0.00 0.00 48 1023.0
20260905130046 92 98 6.0 11.0 0.00 0.00 0.00 51 1023.1
20260905124620 92 92 5.0 13.0 0.00 0.00 0.00 51 1023.1
20260905123143 92 81 7.0 13.0 0.00 0.00 0.00 49 1023.2
20260905121505 93 133 9.0 13.0 0.00 0.00 0.00 50 1023.2
20260905120002 93 28 2.0 12.0 0.00 0.00 0.00 43 1023.1
20260905114503 92 158 7.0 10.0 0.00 0.00 0.00 42 1023.1
20260905111510 91 167 6.0 13.0 0.00 0.00 0.00 43 1023.3
20260905110159 90 122 6.0 11.0 0.00 0.00 0.00 43 1023.3
20260905103009 90 56 6.0 9.0 0.00 0.00 0.00 44 1023.6
20260905101523 88 38 4.0 11.0 0.00 0.00 0.00 46 1023.6
20260905100022 87 79 9.0 14.0 0.00 0.00 0.00 50 1023.6
20260905100003 87 85 9.0 14.0 0.00 0.00 0.00 50 1023.6
20260905094600 86 79 6.0 10.0 0.00 0.00 0.00 52 1023.6
20260905093117 85 71 6.0 12.0 0.00 0.00 0.00 56 1023.4
20260905091614 85 83 7.0 13.0 0.00 0.00 0.00 55 1023.3
20260905090114 85 54 7.0 13.0 0.00 0.00 0.00 52 1023.0
20260905084621 86 56 4.0 9.0 0.00 0.00 0.00 46 1022.9
20260905083123 87 5 4.0 8.0 0.00 0.00 0.00 42 1022.6
20260905081648 88 65 4.0 9.0 0.00 0.00 0.00 37 1022.5
20260905080125 89 61 2.0 4.0 0.00 0.00 0.00 34 1022.2
20260905074516 87 185 0.0 2.0 0.00 0.00 0.00 36 1022.2
20260905073037 85 171 1.0 2.0 0.00 0.00 0.00 39 1022.2
20260905071553 82 287 2.0 4.0 0.00 0.00 0.00 43 1022.2
20260905070143 78 264 0.0 2.0 0.00 0.00 0.00 50 1022.1
20260905063013 73 281 2.0 4.0 0.00 0.00 0.00 55 1021.8
20260905061527 72 261 2.0 3.0 0.00 0.00 0.00 58 1021.7
20260905060024 71 277 1.0 3.0 0.00 0.00 0.00 59 1021.6
20260905054518 71 260 2.0 4.0 0.00 0.00 0.00 60 1021.6
20260905053030 71 285 2.0 4.0 0.00 0.00 0.00 61 1021.7
20260905051533 70 269 2.0 4.0 0.00 0.00 0.00 62 1021.5
20260905050045 70 273 2.0 3.0 0.00 0.00 0.00 64 1021.5
20260905044611 70 267 2.0 4.0 0.00 0.00 0.00 65 1021.5
20260905043135 70 289 1.0 2.0 0.00 0.00 0.00 65 1021.5
20260905041624 70 289 0.0 2.0 0.00 0.00 0.00 67 1021.4
20260905040121 70 289 0.0 2.0 0.00 0.00 0.00 68 1021.4
20260905034612 70 280 1.0 3.0 0.00 0.00 0.00 68 1021.4
20260905033120 70 290 2.0 3.0 0.00 0.00 0.00 69 1021.5
20260905031640 70 284 0.0 2.0 0.00 0.00 0.00 71 1021.5
20260905030147 70 284 1.0 4.0 0.00 0.00 0.00 72 1021.6
20260905024658 70 268 0.0 2.0 0.00 0.00 0.00 72 1021.7
20260905023006 70 256 2.0 4.0 0.00 0.00 0.00 73 1021.6
20260905021608 70 267 3.0 4.0 0.00 0.00 0.00 73 1021.6
20260905020053 71 277 1.0 2.0 0.00 0.00 0.00 73 1021.6
20260905014605 71 270 2.0 3.0 0.00 0.00 0.00 74 1021.6
20260905013115 71 277 1.0 3.0 0.00 0.00 0.00 74 1021.6
20260905011633 71 273 0.0 2.0 0.00 0.00 0.00 74 1021.6
20260905010112 71 273 0.0 3.0 0.00 0.00 0.00 74 1021.7
20260905004635 72 275 0.0 2.0 0.00 0.00 0.00 74 1021.8
20260905003141 72 268 2.0 3.0 0.00 0.00 0.00 73 1021.9
20260905001651 72 283 1.0 3.0 0.00 0.00 0.00 72 1021.9
20260905000137 72 279 0.0 2.0 0.00 0.00 0.00 72 1021.9
20260904234601 72 266 1.0 3.0 0.00 0.00 0.00 71 1021.8
20260904233043 73 270 1.0 2.0 0.00 0.00 0.00 70 1022.0
20260904231602 73 268 2.0 3.0 0.00 0.00 0.00 69 1022.0
20260904230132 73 256 1.0 4.0 0.00 0.00 0.00 69 1021.9
20260904224508 73 278 2.0 3.0 0.00 0.00 0.00 68 1021.8
20260904223046 74 263 3.0 4.0 0.00 0.00 0.00 68 1021.8
20260904221515 74 271 3.0 4.0 0.00 0.00 0.00 67 1021.6
20260904220005 74 281 3.0 6.0 0.00 0.00 0.00 67 1021.7
20260904214526 75 268 1.0 2.0 0.00 0.00 0.00 65 1021.6
20260904213041 76 242 0.0 2.0 0.00 0.00 0.00 64 1021.6
20260904211611 75 252 1.0 4.0 0.00 0.00 0.00 65 1021.7
20260904210050 76 265 2.0 6.0 0.00 0.00 0.00 65 1021.7
20260904204534 76 277 2.0 3.0 0.00 0.00 0.00 65 1021.7
20260904203137 76 266 3.0 6.0 0.00 0.00 0.00 64 1021.5
20260904201654 77 260 1.0 4.0 0.00 0.00 0.00 64 1021.5
20260904200148 77 267 1.0 3.0 0.00 0.00 0.00 64 1021.1
20260904194503 78 277 1.0 2.0 0.00 0.00 0.00 64 1021.0
20260904193013 78 277 1.0 5.0 0.00 0.00 0.00 64 1020.9
20260904191546 78 259 1.0 6.0 0.00 0.00 0.00 64 1020.8
20260904190048 79 264 1.0 4.0 0.00 0.00 0.00 63 1020.7
20260904184614 80 283 1.0 3.0 0.00 0.00 0.00 61 1020.5
20260904183123 82 263 2.0 4.0 0.00 0.00 0.00 58 1020.5
20260904181637 83 294 1.0 4.0 0.00 0.00 0.00 57 1020.4
20260904180034 86 330 1.0 3.0 0.00 0.00 0.00 54 1020.3
20260904174542 87 97 0.0 4.0 0.00 0.00 0.00 53 1020.3
20260904173110 88 106 3.0 7.0 0.00 0.00 0.00 51 1020.3
20260904171633 89 85 2.0 7.0 0.00 0.00 0.00 48 1020.2
20260904170137 89 115 6.0 10.0 0.00 0.00 0.00 47 1020.0
20260904164525 90 109 4.0 9.0 0.00 0.00 0.00 46 1019.9
20260904163038 91 106 2.0 11.0 0.00 0.00 0.00 46 1019.9
20260904161634 91 125 5.0 11.0 0.00 0.00 0.00 45 1020.0
20260904160109 92 98 7.0 12.0 0.00 0.00 0.00 45 1019.9
20260904154628 93 117 7.0 11.0 0.00 0.00 0.00 44 1019.9
20260904153151 92 76 5.0 12.0 0.00 0.00 0.00 49 1019.8
20260904151531 92 92 3.0 11.0 0.00 0.00 0.00 49 1019.8
20260904150107 92 91 4.0 11.0 0.00 0.00 0.00 49 1020.1